Tracking 34305 objects as of 7-Jun-2026
HD Live streaming from Space Station
objects crossing your sky now

STARLINK-37739

Track STARLINK-37739 now!
10-day predictions
STARLINK-37739 is classified as:


NORAD ID: 69233
Int'l Code: 2026-115Y
Perigee: 334.8 km
Apogee: 335.4 km
Inclination: 97.3 °
Period: 91.1 minutes
Semi major axis: 6706 km
RCS: Unknown
Launch date: May 26, 2026
Source: United States (US)
Launch site: AIR FORCE WESTERN TEST RANGE (AFWTR)
Your satellite tracking list
Your tracking list is empty




NASA's NSSDC Master Catalog

Two Line Element Set (TLE):
1 69233U 26115Y   26158.21864707  .00201746  00000-0  10269-2 0  9995
2 69233  97.2839 175.1604 0000440  68.8673 291.2642 15.80878179  3118
Source of the keplerian elements: AFSPC